Location: Unspecified
(0.0000°N, 0.0000°E)
Time: 19:59:53
(UTC+01:00)

Resurs 01 Rocket - Visible Passes

Search period start: 02 March 2015 00:00
Search period end: 12 March 2015 00:00
Orbit: 636 x 645 km, 98.2° (Epoch: 02 March)

Date Brightness Start Highest point End Pass type
(mag) Time Alt. Az. Time Alt. Az. Time Alt. Az.
02 Mar 3.2 19:39:43 10° S 19:43:55 40° WSW 19:48:04 10° NNW visible
03 Mar 5.2 06:17:38 10° ENE 06:19:16 12° E 06:21:13 10° SE visible
03 Mar 4.7 20:04:14 10° SSW 20:07:31 19° W 20:10:37 10° NW visible
04 Mar 4.3 06:39:17 10° NE 06:42:53 26° E 06:46:37 10° SSE visible
06 Mar 3.0 19:37:35 10° S 19:41:51 44° W 19:46:03 10° NNW visible
07 Mar 5.3 06:16:01 10° E 06:17:11 11° E 06:18:40 10° ESE visible
07 Mar 4.5 20:02:00 10° SSW 20:05:26 21° W 20:08:42 10° NW visible
08 Mar 4.4 06:37:20 10° NE 06:40:48 24° E 06:44:24 10° SSE visible
10 Mar 2.8 19:35:27 10° S 19:39:45 48° WSW 19:44:01 10° NNW visible
11 Mar 5.5 06:14:47 10° E 06:15:04 10° E 06:15:43 10° ESE visible
11 Mar 4.4 19:59:46 10° SSW 20:03:20 23° W 20:06:46 10° NW visible
